owner,sensor,date,latitude,longitude,vertical_datum,wind_speed,wind_to_direction,wind_speed_of_gust,qcFlag 
NDBC,ioos:station:NOAA.NDBC:SMKF1:1,2014-03-01T00:00:00Z,24.6280,-81.1120,48.5,4.6,350.0,5.1,'1111122,1111122,1111122' 
NDBC,ioos:station:NOAA.NDBC:SMKF1:1,2014-03-01T01:00:00Z,24.6280,-81.1120,48.5,3.1,350.0,3.6,'1111122,1111122,1111122' 
NDBC,ioos:station:NOAA.NDBC:SMKF1:1,2014-03-01T02:00:00Z,24.6280,-81.1120,48.5,4.6,350.0,5.7,'1111122,1111122,1111122' 
NDBC,ioos:station:NOAA.NDBC:SMKF1:1,2014-03-01T03:00:00Z,24.6280,-81.1120,48.5,4.1,340.0,4.6,'1111122,1111122,1111122' 
NDBC,ioos:station:NOAA.NDBC:SMKF1:1,2014-03-01T04:00:00Z,24.6280,-81.1120,48.5,4.6,340.0,5.1,'1111122,1111122,1111122' 
NDBC,ioos:station:NOAA.NDBC:SMKF1:1,2014-03-01T05:00:00Z,24.6280,-81.1120,48.5,5.7,330.0,6.2,'1111122,1111122,1111122' 
NDBC,ioos:station:NOAA.NDBC:SMKF1:1,2014-03-01T06:00:00Z,24.6280,-81.1120,48.5,6.7,340.0,6.7,'1111122,1111122,1111122' 
NDBC,ioos:station:NOAA.NDBC:SMKF1:1,2014-03-01T07:00:00Z,24.6280,-81.1120,48.5,5.1,340.0,5.7,'1111122,1111122,1111122' 
NDBC,ioos:station:NOAA.NDBC:SMKF1:1,2014-03-01T08:00:00Z,24.6280,-81.1120,48.5,4.6,20.0,5.1,'1111122,1111122,1111122' 
NDBC,ioos:station:NOAA.NDBC:SMKF1:1,2014-03-01T09:00:00Z,24.6280,-81.1120,48.5,3.6,360.0,4.1,'1111122,1111122,1111122' 
NDBC,ioos:station:NOAA.NDBC:SMKF1:1,2014-03-01T10:00:00Z,24.6280,-81.1120,48.5,4.1,30.0,4.6,'1111122,1111122,1111122' 
NDBC,ioos:station:NOAA.NDBC:SMKF1:1,2014-03-01T11:00:00Z,24.6280,-81.1120,48.5,4.6,10.0,5.1,'1111122,1111122,1111122' 
NDBC,ioos:station:NOAA.NDBC:SMKF1:1,2014-03-01T12:00:00Z,24.6280,-81.1120,48.5,5.1,20.0,5.7,'1111122,1111122,1111122' 
NDBC,ioos:station:NOAA.NDBC:SMKF1:1,2014-03-01T13:00:00Z,24.6280,-81.1120,48.5,5.7,10.0,5.7,'1111122,1111122,1111122' 
NDBC,ioos:station:NOAA.NDBC:SMKF1:1,2014-03-01T14:00:00Z,24.6280,-81.1120,48.5,4.1,20.0,4.6,'1111122,1111122,1111122' 
NDBC,ioos:station:NOAA.NDBC:SMKF1:1,2014-03-01T15:00:00Z,24.6280,-81.1120,48.5,3.6,20.0,4.1,'1111122,1111122,1111122' 
NDBC,ioos:station:NOAA.NDBC:SMKF1:1,2014-03-01T16:00:00Z,24.6280,-81.1120,48.5,5.7,20.0,6.2,'1111122,1111122,1111122' 
NDBC,ioos:station:NOAA.NDBC:SMKF1:1,2014-03-01T17:00:00Z,24.6280,-81.1120,48.5,5.1,360.0,6.2,'1111122,1111122,1111122' 
NDBC,ioos:station:NOAA.NDBC:SMKF1:1,2014-03-01T18:00:00Z,24.6280,-81.1120,48.5,5.7,350.0,6.2,'1111122,1111122,1111122' 
NDBC,ioos:station:NOAA.NDBC:SMKF1:1,2014-03-01T19:00:00Z,24.6280,-81.1120,48.5,4.1,350.0,4.6,'1111122,1111122,1111122' 
NDBC,ioos:station:NOAA.NDBC:SMKF1:1,2014-03-01T20:00:00Z,24.6280,-81.1120,48.5,3.6,350.0,4.1,'1111122,1111122,1111122' 
NDBC,ioos:station:NOAA.NDBC:SMKF1:1,2014-03-01T21:00:00Z,24.6280,-81.1120,48.5,4.1,340.0,4.6,'1111122,1111122,1111122' 
NDBC,ioos:station:NOAA.NDBC:SMKF1:1,2014-03-01T22:00:00Z,24.6280,-81.1120,48.5,4.1,340.0,4.6,'1111122,1111122,1111122' 
NDBC,ioos:station:NOAA.NDBC:SMKF1:1,2014-03-01T23:00:00Z,24.6280,-81.1120,48.5,3.6,360.0,4.1,'1111122,1111122,1111122' 
NDBC,ioos:station:NOAA.NDBC:SMKF1:1,2014-03-02T00:00:00Z,24.6280,-81.1120,48.5,3.1,10.0,4.1,'1111122,1111122,1111122' 
NDBC,ioos:station:NOAA.NDBC:SMKF1:1,2014-03-02T01:00:00Z,24.6280,-81.1120,48.5,3.1,10.0,3.6,'1111122,1111122,1111122' 
NDBC,ioos:station:NOAA.NDBC:SMKF1:1,2014-03-02T02:00:00Z,24.6280,-81.1120,48.5,6.2,70.0,6.7,'1111122,1111122,1111122' 
NDBC,ioos:station:NOAA.NDBC:SMKF1:1,2014-03-02T03:00:00Z,24.6280,-81.1120,48.5,7.7,80.0,8.2,'1111122,1111122,1111122' 
NDBC,ioos:station:NOAA.NDBC:SMKF1:1,2014-03-02T04:00:00Z,24.6280,-81.1120,48.5,6.2,80.0,6.7,'1111122,1111122,1111122' 
NDBC,ioos:station:NOAA.NDBC:SMKF1:1,2014-03-02T05:00:00Z,24.6280,-81.1120,48.5,7.2,70.0,7.7,'1111122,1111122,1111122' 
NDBC,ioos:station:NOAA.NDBC:SMKF1:1,2014-03-02T06:00:00Z,24.6280,-81.1120,48.5,7.7,80.0,8.2,'1111122,1111122,1111122' 
NDBC,ioos:station:NOAA.NDBC:SMKF1:1,2014-03-02T07:00:00Z,24.6280,-81.1120,48.5,8.2,70.0,8.8,'1111122,1111122,1111122' 
NDBC,ioos:station:NOAA.NDBC:SMKF1:1,2014-03-02T08:00:00Z,24.6280,-81.1120,48.5,7.7,80.0,8.8,'1111122,1111122,1111122' 
NDBC,ioos:station:NOAA.NDBC:SMKF1:1,2014-03-02T09:00:00Z,24.6280,-81.1120,48.5,7.2,80.0,7.7,'1111122,1111122,1111122' 
NDBC,ioos:station:NOAA.NDBC:SMKF1:1,2014-03-02T10:00:00Z,24.6280,-81.1120,48.5,7.7,80.0,8.2,'1111122,1111122,1111122' 
NDBC,ioos:station:NOAA.NDBC:SMKF1:1,2014-03-02T11:00:00Z,24.6280,-81.1120,48.5,7.2,80.0,7.7,'1111122,1111122,1111122' 
NDBC,ioos:station:NOAA.NDBC:SMKF1:1,2014-03-02T12:00:00Z,24.6280,-81.1120,48.5,7.2,90.0,7.7,'1111122,1111122,1111122' 
NDBC,ioos:station:NOAA.NDBC:SMKF1:1,2014-03-02T13:00:00Z,24.6280,-81.1120,48.5,7.7,80.0,7.7,'1111122,1111122,1111122' 
NDBC,ioos:station:NOAA.NDBC:SMKF1:1,2014-03-02T14:00:00Z,24.6280,-81.1120,48.5,6.7,90.0,7.2,'1111122,1111122,1111122' 
NDBC,ioos:station:NOAA.NDBC:SMKF1:1,2014-03-02T15:00:00Z,24.6280,-81.1120,48.5,7.2,90.0,7.7,'1111122,1111122,1111122' 
NDBC,ioos:station:NOAA.NDBC:SMKF1:1,2014-03-02T16:00:00Z,24.6280,-81.1120,48.5,6.7,80.0,7.7,'1111122,1111122,1111122' 
NDBC,ioos:station:NOAA.NDBC:SMKF1:1,2014-03-02T17:00:00Z,24.6280,-81.1120,48.5,8.2,70.0,8.8,'1111122,1111122,1111122' 
NDBC,ioos:station:NOAA.NDBC:SMKF1:1,2014-03-02T18:00:00Z,24.6280,-81.1120,48.5,7.2,80.0,8.2,'1111122,1111122,1111122' 
NDBC,ioos:station:NOAA.NDBC:SMKF1:1,2014-03-02T19:00:00Z,24.6280,-81.1120,48.5,6.2,80.0,7.2,'1111122,1111122,1111122' 
NDBC,ioos:station:NOAA.NDBC:SMKF1:1,2014-03-02T20:00:00Z,24.6280,-81.1120,48.5,7.2,80.0,7.7,'1111122,1111122,1111122' 
NDBC,ioos:station:NOAA.NDBC:SMKF1:1,2014-03-02T21:00:00Z,24.6280,-81.1120,48.5,6.7,100.0,7.7,'1111122,1111122,1111122' 
NDBC,ioos:station:NOAA.NDBC:SMKF1:1,2014-03-02T22:00:00Z,24.6280,-81.1120,48.5,5.7,110.0,6.2,'1111122,1111122,1111122' 
NDBC,ioos:station:NOAA.NDBC:SMKF1:1,2014-03-02T23:00:00Z,24.6280,-81.1120,48.5,5.7,100.0,6.2,'1111122,1111122,1111122' 
NDBC,ioos:station:NOAA.NDBC:SMKF1:1,2014-03-03T00:00:00Z,24.6280,-81.1120,48.5,5.1,90.0,5.7,'1111122,1111122,1111122' 
NDBC,ioos:station:NOAA.NDBC:SMKF1:1,2014-03-03T01:00:00Z,24.6280,-81.1120,48.5,5.7,70.0,5.7,'1111122,1111122,1111122' 
NDBC,ioos:station:NOAA.NDBC:SMKF1:1,2014-03-03T02:00:00Z,24.6280,-81.1120,48.5,5.1,100.0,5.7,'1111122,1111122,1111122' 
NDBC,ioos:station:NOAA.NDBC:SMKF1:1,2014-03-03T03:00:00Z,24.6280,-81.1120,48.5,5.7,120.0,6.2,'1111122,1111122,1111122' 
NDBC,ioos:station:NOAA.NDBC:SMKF1:1,2014-03-03T04:00:00Z,24.6280,-81.1120,48.5,5.7,120.0,7.2,'1111122,1111122,1111122' 
NDBC,ioos:station:NOAA.NDBC:SMKF1:1,2014-03-03T05:00:00Z,24.6280,-81.1120,48.5,4.6,110.0,5.7,'1111122,1111122,1111122' 
NDBC,ioos:station:NOAA.NDBC:SMKF1:1,2014-03-03T06:00:00Z,24.6280,-81.1120,48.5,4.6,110.0,4.6,'1111122,1111122,1111122' 
NDBC,ioos:station:NOAA.NDBC:SMKF1:1,2014-03-03T07:00:00Z,24.6280,-81.1120,48.5,3.6,70.0,4.1,'1111122,1111122,1111122' 
NDBC,ioos:station:NOAA.NDBC:SMKF1:1,2014-03-03T08:00:00Z,24.6280,-81.1120,48.5,4.1,100.0,6.2,'1111122,1111122,1111122' 
NDBC,ioos:station:NOAA.NDBC:SMKF1:1,2014-03-03T09:00:00Z,24.6280,-81.1120,48.5,2.1,100.0,2.1,'1111122,1111122,1111122' 
NDBC,ioos:station:NOAA.NDBC:SMKF1:1,2014-03-03T10:00:00Z,24.6280,-81.1120,48.5,2.6,90.0,3.1,'1111122,1111122,1111122' 
NDBC,ioos:station:NOAA.NDBC:SMKF1:1,2014-03-03T11:00:00Z,24.6280,-81.1120,48.5,3.6,110.0,4.1,'1111122,1111122,1111122' 
NDBC,ioos:station:NOAA.NDBC:SMKF1:1,2014-03-03T12:00:00Z,24.6280,-81.1120,48.5,5.7,120.0,6.2,'1111122,1111122,1111122' 
NDBC,ioos:station:NOAA.NDBC:SMKF1:1,2014-03-03T13:00:00Z,24.6280,-81.1120,48.5,5.1,110.0,5.7,'1111122,1111122,1111122' 
NDBC,ioos:station:NOAA.NDBC:SMKF1:1,2014-03-03T14:00:00Z,24.6280,-81.1120,48.5,4.1,120.0,4.1,'1111122,1111122,1111122' 
NDBC,ioos:station:NOAA.NDBC:SMKF1:1,2014-03-03T15:00:00Z,24.6280,-81.1120,48.5,5.1,130.0,5.7,'1111122,1111122,1111122' 
NDBC,ioos:station:NOAA.NDBC:SMKF1:1,2014-03-03T16:00:00Z,24.6280,-81.1120,48.5,5.1,120.0,5.7,'1111122,1111122,1111122' 
NDBC,ioos:station:NOAA.NDBC:SMKF1:1,2014-03-03T17:00:00Z,24.6280,-81.1120,48.5,3.6,120.0,4.1,'1111122,1111122,1111122' 
NDBC,ioos:station:NOAA.NDBC:SMKF1:1,2014-03-03T18:00:00Z,24.6280,-81.1120,48.5,3.1,100.0,3.6,'1111122,1111122,1111122' 
NDBC,ioos:station:NOAA.NDBC:SMKF1:1,2014-03-03T19:00:00Z,24.6280,-81.1120,48.5,4.6,120.0,5.1,'1111122,1111122,1111122' 
NDBC,ioos:station:NOAA.NDBC:SMKF1:1,2014-03-03T20:00:00Z,24.6280,-81.1120,48.5,2.1,120.0,2.1,'1111122,1111122,1111122' 
NDBC,ioos:station:NOAA.NDBC:SMKF1:1,2014-03-03T21:00:00Z,24.6280,-81.1120,48.5,1.5,120.0,1.5,'1111122,1111122,1111122' 
NDBC,ioos:station:NOAA.NDBC:SMKF1:1,2014-03-03T22:00:00Z,24.6280,-81.1120,48.5,2.1,120.0,2.1,'1111122,1111122,1111122' 
NDBC,ioos:station:NOAA.NDBC:SMKF1:1,2014-03-03T23:00:00Z,24.6280,-81.1120,48.5,1.0,170.0,1.0,'1111122,1111122,1111122' 
NDBC,ioos:station:NOAA.NDBC:SMKF1:1,2014-03-04T00:00:00Z,24.6280,-81.1120,48.5,1.5,180.0,2.1,'1111122,1111122,1111122' 
NDBC,ioos:station:NOAA.NDBC:SMKF1:1,2014-03-04T01:00:00Z,24.6280,-81.1120,48.5,1.0,120.0,1.0,'1111122,1111122,1111122' 
NDBC,ioos:station:NOAA.NDBC:SMKF1:1,2014-03-04T02:00:00Z,24.6280,-81.1120,48.5,0.5,90.0,1.0,'1111122,1111122,1111122' 
NDBC,ioos:station:NOAA.NDBC:SMKF1:1,2014-03-04T03:00:00Z,24.6280,-81.1120,48.5,1.0,80.0,1.5,'1111122,1111122,1111122' 
NDBC,ioos:station:NOAA.NDBC:SMKF1:1,2014-03-04T04:00:00Z,24.6280,-81.1120,48.5,1.0,70.0,1.5,'1111122,1111122,1111122' 
NDBC,ioos:station:NOAA.NDBC:SMKF1:1,2014-03-04T05:00:00Z,24.6280,-81.1120,48.5,2.6,70.0,2.6,'1111122,1111122,1111122' 
NDBC,ioos:station:NOAA.NDBC:SMKF1:1,2014-03-04T06:00:00Z,24.6280,-81.1120,48.5,2.1,60.0,2.1,'1111122,1111122,1111122' 
NDBC,ioos:station:NOAA.NDBC:SMKF1:1,2014-03-04T07:00:00Z,24.6280,-81.1120,48.5,2.6,70.0,3.1,'1111122,1111122,1111122' 
NDBC,ioos:station:NOAA.NDBC:SMKF1:1,2014-03-04T08:00:00Z,24.6280,-81.1120,48.5,1.5,80.0,2.1,'1111122,1111122,1111122' 
NDBC,ioos:station:NOAA.NDBC:SMKF1:1,2014-03-04T09:00:00Z,24.6280,-81.1120,48.5,2.6,70.0,3.1,'1111122,1111122,1111122' 
NDBC,ioos:station:NOAA.NDBC:SMKF1:1,2014-03-04T10:00:00Z,24.6280,-81.1120,48.5,2.6,100.0,2.6,'1111122,1111122,1111122' 
NDBC,ioos:station:NOAA.NDBC:SMKF1:1,2014-03-04T11:00:00Z,24.6280,-81.1120,48.5,2.6,60.0,3.1,'1111122,1111122,1111122' 
NDBC,ioos:station:NOAA.NDBC:SMKF1:1,2014-03-04T12:00:00Z,24.6280,-81.1120,48.5,3.1,30.0,3.1,'1111122,1111122,1111122' 
NDBC,ioos:station:NOAA.NDBC:SMKF1:1,2014-03-04T13:00:00Z,24.6280,-81.1120,48.5,3.6,20.0,4.1,'1111122,1111122,1111122' 
NDBC,ioos:station:NOAA.NDBC:SMKF1:1,2014-03-04T14:00:00Z,24.6280,-81.1120,48.5,3.6,30.0,3.6,'1111122,1111122,1111122' 
NDBC,ioos:station:NOAA.NDBC:SMKF1:1,2014-03-04T15:00:00Z,24.6280,-81.1120,48.5,5.1,40.0,5.1,'1111122,1111122,1111122' 
NDBC,ioos:station:NOAA.NDBC:SMKF1:1,2014-03-04T16:00:00Z,24.6280,-81.1120,48.5,4.6,50.0,5.1,'1111122,1111122,1111122' 
NDBC,ioos:station:NOAA.NDBC:SMKF1:1,2014-03-04T17:00:00Z,24.6280,-81.1120,48.5,4.6,60.0,5.1,'1111122,1111122,1111122' 
NDBC,ioos:station:NOAA.NDBC:SMKF1:1,2014-03-04T18:00:00Z,24.6280,-81.1120,48.5,4.6,70.0,4.6,'1111122,1111122,1111122' 
NDBC,ioos:station:NOAA.NDBC:SMKF1:1,2014-03-04T19:00:00Z,24.6280,-81.1120,48.5,4.6,70.0,5.7,'1111122,1111122,1111122' 
NDBC,ioos:station:NOAA.NDBC:SMKF1:1,2014-03-04T20:00:00Z,24.6280,-81.1120,48.5,5.1,70.0,5.7,'1111122,1111122,1111122' 
NDBC,ioos:station:NOAA.NDBC:SMKF1:1,2014-03-04T21:00:00Z,24.6280,-81.1120,48.5,5.7,70.0,6.7,'1111122,1111122,1111122' 
NDBC,ioos:station:NOAA.NDBC:SMKF1:1,2014-03-04T22:00:00Z,24.6280,-81.1120,48.5,6.7,70.0,6.7,'1111122,1111122,1111122' 
NDBC,ioos:station:NOAA.NDBC:SMKF1:1,2014-03-04T23:00:00Z,24.6280,-81.1120,48.5,6.2,70.0,6.2,'1111122,1111122,1111122' 
NDBC,ioos:station:NOAA.NDBC:SMKF1:1,2014-03-05T00:00:00Z,24.6280,-81.1120,48.5,5.1,70.0,5.7,'1111122,1111122,1111122' 
NDBC,ioos:station:NOAA.NDBC:SMKF1:1,2014-03-05T01:00:00Z,24.6280,-81.1120,48.5,5.7,60.0,6.2,'1111122,1111122,1111122' 
NDBC,ioos:station:NOAA.NDBC:SMKF1:1,2014-03-06T15:00:00Z,24.6280,-81.1120,48.5,8.8,170.0,9.3,'1111122,1111122,1111122' 
NDBC,ioos:station:NOAA.NDBC:SMKF1:1,2014-03-06T16:00:00Z,24.6280,-81.1120,48.5,9.3,180.0,10.3,'1111122,1111122,1111122' 
NDBC,ioos:station:NOAA.NDBC:SMKF1:1,2014-03-06T17:00:00Z,24.6280,-81.1120,48.5,11.3,180.0,11.8,'1111122,1111122,1111122' 
NDBC,ioos:station:NOAA.NDBC:SMKF1:1,2014-03-06T18:00:00Z,24.6280,-81.1120,48.5,11.3,180.0,12.4,'1111122,1111122,1111122' 
NDBC,ioos:station:NOAA.NDBC:SMKF1:1,2014-03-06T19:00:00Z,24.6280,-81.1120,48.5,10.8,190.0,11.3,'1111122,1111122,1111122' 
NDBC,ioos:station:NOAA.NDBC:SMKF1:1,2014-03-06T20:00:00Z,24.6280,-81.1120,48.5,6.7,220.0,7.2,'1111122,1111122,1111122' 
NDBC,ioos:station:NOAA.NDBC:SMKF1:1,2014-03-06T21:00:00Z,24.6280,-81.1120,48.5,14.9,310.0,16.5,'1111122,1111122,1111122' 
NDBC,ioos:station:NOAA.NDBC:SMKF1:1,2014-03-06T22:00:00Z,24.6280,-81.1120,48.5,12.9,310.0,13.4,'1111122,1111122,1111122' 
NDBC,ioos:station:NOAA.NDBC:SMKF1:1,2014-03-06T23:00:00Z,24.6280,-81.1120,48.5,8.8,280.0,9.8,'1111122,1111122,1111122' 
NDBC,ioos:station:NOAA.NDBC:SMKF1:1,2014-03-07T00:00:00Z,24.6280,-81.1120,48.5,8.8,260.0,9.3,'1111122,1111122,1111122' 
NDBC,ioos:station:NOAA.NDBC:SMKF1:1,2014-03-07T01:00:00Z,24.6280,-81.1120,48.5,11.3,220.0,12.4,'1111122,1111122,1111122' 
NDBC,ioos:station:NOAA.NDBC:SMKF1:1,2014-03-07T02:00:00Z,24.6280,-81.1120,48.5,12.9,200.0,13.9,'1111122,1111122,1111122' 
NDBC,ioos:station:NOAA.NDBC:SMKF1:1,2014-03-07T03:00:00Z,24.6280,-81.1120,48.5,13.4,210.0,14.9,'1111122,1111122,1111122' 
NDBC,ioos:station:NOAA.NDBC:SMKF1:1,2014-03-07T04:00:00Z,24.6280,-81.1120,48.5,13.4,210.0,14.4,'1111122,1111122,1111122' 
NDBC,ioos:station:NOAA.NDBC:SMKF1:1,2014-03-07T05:00:00Z,24.6280,-81.1120,48.5,13.4,240.0,13.9,'1111122,1111122,1111122' 
NDBC,ioos:station:NOAA.NDBC:SMKF1:1,2014-03-07T06:00:00Z,24.6280,-81.1120,48.5,12.4,230.0,13.4,'1111122,1111122,1111122' 
NDBC,ioos:station:NOAA.NDBC:SMKF1:1,2014-03-07T07:00:00Z,24.6280,-81.1120,48.5,13.4,230.0,14.4,'1111122,1111122,1111122' 
NDBC,ioos:station:NOAA.NDBC:SMKF1:1,2014-03-07T08:00:00Z,24.6280,-81.1120,48.5,11.8,230.0,12.4,'1111122,1111122,1111122' 
NDBC,ioos:station:NOAA.NDBC:SMKF1:1,2014-03-07T09:00:00Z,24.6280,-81.1120,48.5,10.8,230.0,11.3,'1111122,1111122,1111122' 
NDBC,ioos:station:NOAA.NDBC:SMKF1:1,2014-03-07T10:00:00Z,24.6280,-81.1120,48.5,7.2,290.0,8.2,'1111122,1111122,1111122' 
NDBC,ioos:station:NOAA.NDBC:SMKF1:1,2014-03-07T11:00:00Z,24.6280,-81.1120,48.5,8.2,300.0,8.8,'1111122,1111122,1111122' 
NDBC,ioos:station:NOAA.NDBC:SMKF1:1,2014-03-07T12:00:00Z,24.6280,-81.1120,48.5,11.3,300.0,12.4,'1111122,1111122,1111122' 
NDBC,ioos:station:NOAA.NDBC:SMKF1:1,2014-03-07T13:00:00Z,24.6280,-81.1120,48.5,10.3,300.0,10.8,'1111122,1111122,1111122' 
NDBC,ioos:station:NOAA.NDBC:SMKF1:1,2014-03-07T14:00:00Z,24.6280,-81.1120,48.5,11.3,300.0,11.8,'1111122,1111122,1111122' 
NDBC,ioos:station:NOAA.NDBC:SMKF1:1,2014-03-07T15:00:00Z,24.6280,-81.1120,48.5,9.8,300.0,10.8,'1111122,1111122,1111122' 
NDBC,ioos:station:NOAA.NDBC:SMKF1:1,2014-03-07T16:00:00Z,24.6280,-81.1120,48.5,10.3,290.0,11.3,'1111122,1111122,1111122' 
NDBC,ioos:station:NOAA.NDBC:SMKF1:1,2014-03-07T17:00:00Z,24.6280,-81.1120,48.5,9.8,320.0,10.3,'1111122,1111122,1111122' 
NDBC,ioos:station:NOAA.NDBC:SMKF1:1,2014-03-07T18:00:00Z,24.6280,-81.1120,48.5,9.3,300.0,10.3,'1111122,1111122,1111122' 
NDBC,ioos:station:NOAA.NDBC:SMKF1:1,2014-03-07T19:00:00Z,24.6280,-81.1120,48.5,11.3,300.0,12.4,'1111122,1111122,1111122' 
NDBC,ioos:station:NOAA.NDBC:SMKF1:1,2014-03-07T20:00:00Z,24.6280,-81.1120,48.5,11.3,290.0,12.4,'1111122,1111122,1111122' 
NDBC,ioos:station:NOAA.NDBC:SMKF1:1,2014-03-07T21:00:00Z,24.6280,-81.1120,48.5,11.8,290.0,13.4,'1111122,1111122,1111122' 
NDBC,ioos:station:NOAA.NDBC:SMKF1:1,2014-03-07T22:00:00Z,24.6280,-81.1120,48.5,11.8,300.0,12.9,'1111122,1111122,1111122' 
NDBC,ioos:station:NOAA.NDBC:SMKF1:1,2014-03-07T23:00:00Z,24.6280,-81.1120,48.5,10.8,310.0,12.4,'1111122,1111122,1111122' 
NDBC,ioos:station:NOAA.NDBC:SMKF1:1,2014-03-08T00:00:00Z,24.6280,-81.1120,48.5,9.3,330.0,10.8,'1111122,1111122,1111122' 
NDBC,ioos:station:NOAA.NDBC:SMKF1:1,2014-03-08T01:00:00Z,24.6280,-81.1120,48.5,9.3,320.0,10.3,'1111122,1111122,1111122' 
NDBC,ioos:station:NOAA.NDBC:SMKF1:1,2014-03-08T02:00:00Z,24.6280,-81.1120,48.5,9.3,330.0,9.8,'1111122,1111122,1111122' 
NDBC,ioos:station:NOAA.NDBC:SMKF1:1,2014-03-08T03:00:00Z,24.6280,-81.1120,48.5,9.8,330.0,11.3,'1111122,1111122,1111122' 
NDBC,ioos:station:NOAA.NDBC:SMKF1:1,2014-03-08T04:00:00Z,24.6280,-81.1120,48.5,8.8,330.0,10.3,'1111122,1111122,1111122' 
NDBC,ioos:station:NOAA.NDBC:SMKF1:1,2014-03-08T05:00:00Z,24.6280,-81.1120,48.5,7.2,330.0,7.7,'1111122,1111122,1111122' 
NDBC,ioos:station:NOAA.NDBC:SMKF1:1,2014-03-08T06:00:00Z,24.6280,-81.1120,48.5,5.1,350.0,6.7,'1111122,1111122,1111122' 
NDBC,ioos:station:NOAA.NDBC:SMKF1:1,2014-03-08T07:00:00Z,24.6280,-81.1120,48.5,7.2,330.0,8.2,'1111122,1111122,1111122' 
NDBC,ioos:station:NOAA.NDBC:SMKF1:1,2014-03-08T08:00:00Z,24.6280,-81.1120,48.5,8.8,330.0,9.3,'1111122,1111122,1111122' 
NDBC,ioos:station:NOAA.NDBC:SMKF1:1,2014-03-08T09:00:00Z,24.6280,-81.1120,48.5,6.7,20.0,7.7,'1111122,1111122,1111122' 
NDBC,ioos:station:NOAA.NDBC:SMKF1:1,2014-03-08T10:00:00Z,24.6280,-81.1120,48.5,6.7,20.0,7.2,'1111122,1111122,1111122' 
NDBC,ioos:station:NOAA.NDBC:SMKF1:1,2014-03-08T11:00:00Z,24.6280,-81.1120,48.5,5.7,30.0,6.2,'1111122,1111122,1111122' 
NDBC,ioos:station:NOAA.NDBC:SMKF1:1,2014-03-08T12:00:00Z,24.6280,-81.1120,48.5,5.7,30.0,6.7,'1111122,1111122,1111122' 
NDBC,ioos:station:NOAA.NDBC:SMKF1:1,2014-03-08T13:00:00Z,24.6280,-81.1120,48.5,5.1,30.0,6.2,'1111122,1111122,1111122' 
NDBC,ioos:station:NOAA.NDBC:SMKF1:1,2014-03-08T14:00:00Z,24.6280,-81.1120,48.5,5.7,30.0,6.7,'1111122,1111122,1111122' 
NDBC,ioos:station:NOAA.NDBC:SMKF1:1,2014-03-08T15:00:00Z,24.6280,-81.1120,48.5,3.6,40.0,4.6,'1111122,1111122,1111122' 
NDBC,ioos:station:NOAA.NDBC:SMKF1:1,2014-03-08T16:00:00Z,24.6280,-81.1120,48.5,4.6,50.0,5.1,'1111122,1111122,1111122' 
NDBC,ioos:station:NOAA.NDBC:SMKF1:1,2014-03-08T17:00:00Z,24.6280,-81.1120,48.5,4.6,40.0,5.7,'1111122,1111122,1111122' 
NDBC,ioos:station:NOAA.NDBC:SMKF1:1,2014-03-08T18:00:00Z,24.6280,-81.1120,48.5,4.1,30.0,5.7,'1111122,1111122,1111122' 
NDBC,ioos:station:NOAA.NDBC:SMKF1:1,2014-03-08T19:00:00Z,24.6280,-81.1120,48.5,3.6,350.0,4.1,'1111122,1111122,1111122' 
NDBC,ioos:station:NOAA.NDBC:SMKF1:1,2014-03-08T20:00:00Z,24.6280,-81.1120,48.5,0.5,70.0,1.0,'1111122,1111122,1111122' 
NDBC,ioos:station:NOAA.NDBC:SMKF1:1,2014-03-08T21:00:00Z,24.6280,-81.1120,48.5,1.5,70.0,2.1,'1111122,1111122,1111122' 
NDBC,ioos:station:NOAA.NDBC:SMKF1:1,2014-03-08T22:00:00Z,24.6280,-81.1120,48.5,1.0,80.0,1.5,'1111122,1111122,1111122' 
NDBC,ioos:station:NOAA.NDBC:SMKF1:1,2014-03-08T23:00:00Z,24.6280,-81.1120,48.5,3.1,40.0,3.6,'1111122,1111122,1111122' 
NDBC,ioos:station:NOAA.NDBC:SMKF1:1,2014-03-09T00:00:00Z,24.6280,-81.1120,48.5,3.1,30.0,3.6,'1111122,1111122,1111122' 
NDBC,ioos:station:NOAA.NDBC:SMKF1:1,2014-03-09T01:00:00Z,24.6280,-81.1120,48.5,3.6,20.0,4.1,'1111122,1111122,1111122' 
NDBC,ioos:station:NOAA.NDBC:SMKF1:1,2014-03-09T02:00:00Z,24.6280,-81.1120,48.5,3.6,40.0,3.6,'1111122,1111122,1111122' 
NDBC,ioos:station:NOAA.NDBC:SMKF1:1,2014-03-09T03:00:00Z,24.6280,-81.1120,48.5,3.6,50.0,4.1,'1111122,1111122,1111122' 
NDBC,ioos:station:NOAA.NDBC:SMKF1:1,2014-03-09T04:00:00Z,24.6280,-81.1120,48.5,3.6,70.0,4.1,'1111122,1111122,1111122' 
NDBC,ioos:station:NOAA.NDBC:SMKF1:1,2014-03-09T05:00:00Z,24.6280,-81.1120,48.5,4.6,100.0,5.1,'1111122,1111122,1111122' 
NDBC,ioos:station:NOAA.NDBC:SMKF1:1,2014-03-09T06:00:00Z,24.6280,-81.1120,48.5,3.6,60.0,5.1,'1111122,1111122,1111122' 
NDBC,ioos:station:NOAA.NDBC:SMKF1:1,2014-03-09T07:00:00Z,24.6280,-81.1120,48.5,4.1,70.0,4.6,'1111122,1111122,1111122' 
NDBC,ioos:station:NOAA.NDBC:SMKF1:1,2014-03-09T08:00:00Z,24.6280,-81.1120,48.5,3.6,80.0,4.1,'1111122,1111122,1111122' 
NDBC,ioos:station:NOAA.NDBC:SMKF1:1,2014-03-09T09:00:00Z,24.6280,-81.1120,48.5,5.1,60.0,5.7,'1111122,1111122,1111122' 
NDBC,ioos:station:NOAA.NDBC:SMKF1:1,2014-03-09T10:00:00Z,24.6280,-81.1120,48.5,3.1,50.0,4.6,'1111122,1111122,1111122' 
NDBC,ioos:station:NOAA.NDBC:SMKF1:1,2014-03-09T11:00:00Z,24.6280,-81.1120,48.5,4.6,90.0,5.1,'1111122,1111122,1111122' 
NDBC,ioos:station:NOAA.NDBC:SMKF1:1,2014-03-09T12:00:00Z,24.6280,-81.1120,48.5,4.6,60.0,5.1,'1111122,1111122,1111122' 
NDBC,ioos:station:NOAA.NDBC:SMKF1:1,2014-03-09T13:00:00Z,24.6280,-81.1120,48.5,4.1,40.0,4.6,'1111122,1111122,1111122' 
NDBC,ioos:station:NOAA.NDBC:SMKF1:1,2014-03-09T14:00:00Z,24.6280,-81.1120,48.5,4.6,50.0,5.7,'1111122,1111122,1111122' 
NDBC,ioos:station:NOAA.NDBC:SMKF1:1,2014-03-09T15:00:00Z,24.6280,-81.1120,48.5,4.1,50.0,4.6,'1111122,1111122,1111122' 
NDBC,ioos:station:NOAA.NDBC:SMKF1:1,2014-03-09T16:00:00Z,24.6280,-81.1120,48.5,4.6,60.0,5.1,'1111122,1111122,1111122' 
NDBC,ioos:station:NOAA.NDBC:SMKF1:1,2014-03-09T17:00:00Z,24.6280,-81.1120,48.5,4.1,60.0,4.6,'1111122,1111122,1111122' 
NDBC,ioos:station:NOAA.NDBC:SMKF1:1,2014-03-09T18:00:00Z,24.6280,-81.1120,48.5,3.6,60.0,4.6,'1111122,1111122,1111122' 
NDBC,ioos:station:NOAA.NDBC:SMKF1:1,2014-03-09T19:00:00Z,24.6280,-81.1120,48.5,3.1,70.0,3.6,'1111122,1111122,1111122' 
NDBC,ioos:station:NOAA.NDBC:SMKF1:1,2014-03-09T20:00:00Z,24.6280,-81.1120,48.5,3.1,70.0,3.6,'1111122,1111122,1111122' 
NDBC,ioos:station:NOAA.NDBC:SMKF1:1,2014-03-09T21:00:00Z,24.6280,-81.1120,48.5,3.6,80.0,4.1,'1111122,1111122,1111122' 
NDBC,ioos:station:NOAA.NDBC:SMKF1:1,2014-03-09T22:00:00Z,24.6280,-81.1120,48.5,3.1,100.0,3.6,'1111122,1111122,1111122' 
NDBC,ioos:station:NOAA.NDBC:SMKF1:1,2014-03-09T23:00:00Z,24.6280,-81.1120,48.5,2.6,100.0,3.1,'1111122,1111122,1111122' 
NDBC,ioos:station:NOAA.NDBC:SMKF1:1,2014-03-10T00:00:00Z,24.6280,-81.1120,48.5,2.6,90.0,2.6,'1111122,1111122,1111122' 
NDBC,ioos:station:NOAA.NDBC:SMKF1:1,2014-03-10T01:00:00Z,24.6280,-81.1120,48.5,3.6,80.0,4.1,'1111122,1111122,1111122' 
NDBC,ioos:station:NOAA.NDBC:SMKF1:1,2014-03-10T02:00:00Z,24.6280,-81.1120,48.5,2.6,80.0,3.1,'1111122,1111122,1111122' 
NDBC,ioos:station:NOAA.NDBC:SMKF1:1,2014-03-10T03:00:00Z,24.6280,-81.1120,48.5,3.1,90.0,3.6,'1111122,1111122,1111122' 
NDBC,ioos:station:NOAA.NDBC:SMKF1:1,2014-03-10T04:00:00Z,24.6280,-81.1120,48.5,4.6,90.0,5.1,'1111122,1111122,1111122' 
NDBC,ioos:station:NOAA.NDBC:SMKF1:1,2014-03-10T05:00:00Z,24.6280,-81.1120,48.5,4.6,90.0,5.1,'1111122,1111122,1111122' 
NDBC,ioos:station:NOAA.NDBC:SMKF1:1,2014-03-10T06:00:00Z,24.6280,-81.1120,48.5,4.6,110.0,5.1,'1111122,1111122,1111122' 
NDBC,ioos:station:NOAA.NDBC:SMKF1:1,2014-03-10T07:00:00Z,24.6280,-81.1120,48.5,2.1,130.0,2.6,'1111122,1111122,1111122' 
NDBC,ioos:station:NOAA.NDBC:SMKF1:1,2014-03-10T08:00:00Z,24.6280,-81.1120,48.5,2.6,110.0,2.6,'1111122,1111122,1111122' 
NDBC,ioos:station:NOAA.NDBC:SMKF1:1,2014-03-10T09:00:00Z,24.6280,-81.1120,48.5,1.5,110.0,2.1,'1111122,1111122,1111122' 
NDBC,ioos:station:NOAA.NDBC:SMKF1:1,2014-03-10T10:00:00Z,24.6280,-81.1120,48.5,2.1,360.0,2.6,'1111122,1111122,1111122' 
NDBC,ioos:station:NOAA.NDBC:SMKF1:1,2014-03-10T11:00:00Z,24.6280,-81.1120,48.5,4.6,20.0,4.6,'1111122,1111122,1111122' 
NDBC,ioos:station:NOAA.NDBC:SMKF1:1,2014-03-10T12:00:00Z,24.6280,-81.1120,48.5,3.6,40.0,4.1,'1111122,1111122,1111122' 
NDBC,ioos:station:NOAA.NDBC:SMKF1:1,2014-03-10T13:00:00Z,24.6280,-81.1120,48.5,4.1,50.0,4.6,'1111122,1111122,1111122' 
NDBC,ioos:station:NOAA.NDBC:SMKF1:1,2014-03-10T14:00:00Z,24.6280,-81.1120,48.5,2.6,30.0,3.1,'1111122,1111122,1111122' 
NDBC,ioos:station:NOAA.NDBC:SMKF1:1,2014-03-10T15:00:00Z,24.6280,-81.1120,48.5,5.1,40.0,5.7,'1111122,1111122,1111122' 
NDBC,ioos:station:NOAA.NDBC:SMKF1:1,2014-03-10T16:00:00Z,24.6280,-81.1120,48.5,4.1,70.0,4.6,'1111122,1111122,1111122' 
NDBC,ioos:station:NOAA.NDBC:SMKF1:1,2014-03-10T17:00:00Z,24.6280,-81.1120,48.5,3.1,60.0,3.6,'1111122,1111122,1111122' 
NDBC,ioos:station:NOAA.NDBC:SMKF1:1,2014-03-10T18:00:00Z,24.6280,-81.1120,48.5,3.6,60.0,4.1,'1111122,1111122,1111122' 
NDBC,ioos:station:NOAA.NDBC:SMKF1:1,2014-03-10T19:00:00Z,24.6280,-81.1120,48.5,2.6,70.0,3.1,'1111122,1111122,1111122' 